Date String (YYYY-MM-DD hh:mm:ss) UTC,Instrument flags,Ambient pressure (hPa),Sample flow (lpm),Bypass flow (lpm),Sample temperature (°C),Ambient temperature (°C),ASC tube jacket temperature (°C),LED temperature (°C),Box temperature (°C),Sample RH (%),Span deviation,Mass concentration (μg/m³),Mass concentration (μg/m³),Mass concentration (μg/m³)
DateTimeUTC,F1_M11,P_M11,Q1_M11,Q2_M11,T1_M11,T2_M11,T3_M11,T4_M11,T5_M11,U1_M11,ZSPAN_M11,X0_M11,X2_M11,X1_M11
2022-12-22 08:00:00,,0824.9,4.97,0.00,21.3,21.8,00.0,29.9,23.0,03.1,0001.7,0009.45,0004.95,0004.14
2022-12-22 08:01:00,,0824.8,5.05,0.00,21.4,22.0,00.0,29.9,23.1,03.1,0001.8,0009.34,0004.89,0004.09
2022-12-22 08:02:00,,0824.7,4.96,0.00,21.5,22.1,00.0,30.0,23.1,03.1,0001.9,0009.29,0004.83,0004.03
2022-12-22 08:03:00,,0824.9,5.05,0.00,21.4,21.0,00.0,30.0,22.7,03.1,0001.7,0009.22,0004.78,0003.98
2022-12-22 08:04:00,,0824.7,5.00,0.00,21.2,19.5,00.0,30.0,22.2,03.1,0002.2,0009.13,0004.74,0003.93
2022-12-22 08:05:00,,0824.6,4.97,0.00,20.9,19.0,00.0,30.0,22.0,03.2,0001.7,0009.07,0004.71,0003.89
2022-12-22 08:06:00,,0824.6,5.03,0.00,21.0,19.9,00.0,29.9,22.2,03.2,0001.8,0008.96,0004.66,0003.84
2022-12-22 08:07:00,,0824.6,5.01,0.00,21.1,20.6,00.0,29.9,22.5,03.2,0002.0,0008.69,0004.58,0003.81
2022-12-22 08:08:00,,0824.6,4.96,0.00,21.1,21.2,00.0,29.8,22.7,03.2,0001.9,0008.45,0004.55,0003.79
2022-12-22 08:09:00,,0825.1,5.03,0.00,21.2,21.5,00.0,29.8,22.8,03.1,0002.0,0008.46,0004.55,0003.78
2022-12-22 08:10:00,,0824.6,4.98,0.00,21.3,21.9,00.0,29.9,23.0,03.1,0002.4,0008.38,0004.54,0003.78
2022-12-22 08:11:00,,0824.7,5.03,0.00,21.4,22.1,00.0,29.9,23.1,03.1,0002.9,0008.44,0004.56,0003.78
2022-12-22 08:12:00,,0824.4,4.97,0.00,21.4,21.8,00.0,30.0,23.0,03.1,0003.0,0008.39,0004.53,0003.79
2022-12-22 08:13:00,,0824.4,5.03,0.00,21.3,20.3,00.0,30.0,22.5,03.1,0003.3,0008.24,0004.48,0003.78
2022-12-22 08:14:00,,0824.5,4.95,0.00,21.0,19.0,00.0,30.0,22.0,03.2,0003.1,0008.26,0004.49,0003.78
2022-12-22 08:15:00,,0824.7,5.00,0.00,20.9,19.3,00.0,29.9,22.1,03.2,0003.1,0008.25,0004.48,0003.77
2022-12-22 08:16:00,,0824.8,5.03,0.00,21.0,20.2,00.0,29.9,22.4,03.2,0003.5,0008.17,0004.42,0003.76
2022-12-22 08:17:00,,0824.6,4.96,0.00,21.1,20.8,00.0,29.9,22.6,03.2,0003.4,0008.25,0004.44,0003.75
2022-12-22 08:18:00,,0824.7,5.03,0.00,21.2,21.4,00.0,29.9,22.8,03.1,0003.2,0008.18,0004.43,0003.73
2022-12-22 08:19:00,,0824.8,4.97,0.00,21.3,21.8,00.0,29.9,22.9,03.1,0003.0,0008.05,0004.38,0003.72
2022-12-22 08:20:00,,0824.9,5.04,0.00,21.4,22.0,00.0,29.9,23.1,03.1,0002.4,0008.02,0004.37,0003.72
2022-12-22 08:21:00,,0824.9,4.97,0.00,21.5,22.1,00.0,29.9,23.2,03.1,0002.0,0008.27,0004.44,0003.74
2022-12-22 08:22:00,,0824.9,5.02,0.00,21.5,22.2,00.0,30.0,23.2,03.1,0001.6,0008.26,0004.43,0003.74
2022-12-22 08:23:00,,0824.6,4.96,0.00,21.5,21.1,00.0,30.1,22.9,03.1,0001.7,0008.13,0004.41,0003.73
2022-12-22 08:24:00,,0824.6,5.03,0.00,21.3,19.8,00.0,30.1,22.5,03.1,0001.6,0008.22,0004.46,0003.75
2022-12-22 08:25:00,,0824.4,5.02,0.00,21.1,19.0,00.0,30.1,22.1,03.1,0001.6,0008.10,0004.42,0003.74
2022-12-22 08:26:00,,0824.6,5.00,0.00,21.1,19.7,00.0,30.0,22.3,03.2,0001.1,0008.13,0004.43,0003.73
2022-12-22 08:27:00,,0824.9,4.98,0.00,21.1,20.4,00.0,29.9,22.6,03.1,0000.9,0008.18,0004.45,0003.73
2022-12-22 08:28:00,,0825.2,5.03,0.00,21.2,21.0,00.0,29.9,22.8,03.1,0000.8,0008.24,0004.50,0003.77
2022-12-22 08:29:00,,0825.4,4.96,0.00,21.3,21.4,00.0,29.9,22.9,03.1,0000.6,0008.30,0004.56,0003.82
2022-12-22 08:30:00,,0825.4,5.05,0.00,21.4,21.5,00.0,29.9,23.0,03.1,0000.4,0008.44,0004.63,0003.87
2022-12-22 08:31:00,,0825.3,4.97,0.00,21.4,21.7,00.0,29.9,23.0,03.1,0000.9,0008.87,0004.67,0003.90
2022-12-22 08:32:00,,0825.3,5.03,0.00,21.5,21.8,00.0,29.9,23.1,03.1,0000.4,0008.97,0004.66,0003.92
2022-12-22 08:33:00,,0825.4,4.97,0.00,21.6,21.9,00.0,30.0,23.2,03.1,0000.0,0009.42,0004.65,0003.94
2022-12-22 08:34:00,,0825.3,5.03,0.00,21.6,21.9,00.0,30.0,23.2,03.1,-000.4,0009.48,0004.69,0003.98
2022-12-22 08:35:00,,0825.2,4.96,0.00,21.7,22.0,00.0,30.0,23.3,03.1,0000.2,0009.56,0004.74,0004.01
2022-12-22 08:36:00,,0825.2,5.04,0.00,21.7,22.0,00.0,30.1,23.3,03.0,0000.4,0009.61,0004.78,0004.04
2022-12-22 08:37:00,,0825.2,4.96,0.00,21.8,22.1,00.0,30.1,23.4,03.0,0000.7,0009.77,0004.83,0004.07
2022-12-22 08:38:00,,0825.2,5.03,0.00,21.8,22.2,00.0,30.2,23.4,03.0,0000.9,0009.78,0004.87,0004.11
2022-12-22 08:39:00,,0825.1,4.96,0.00,21.9,22.2,00.0,30.2,23.5,03.0,0000.9,0009.75,0004.87,0004.13
2022-12-22 08:40:00,,0825.2,5.01,0.00,21.9,21.5,00.0,30.3,23.2,03.0,0001.2,0009.80,0004.85,0004.10
2022-12-22 08:41:00,,0825.3,5.03,0.00,21.6,20.1,00.0,30.4,22.7,03.0,0001.2,0009.85,0004.84,0004.08
2022-12-22 08:42:00,,0825.4,5.02,0.00,21.4,19.1,00.0,30.3,22.3,03.1,0001.3,0009.53,0004.83,0004.07
2022-12-22 08:43:00,,0825.4,5.00,0.00,21.3,19.6,00.0,30.2,22.4,03.1,0001.4,0009.40,0004.79,0004.05
2022-12-22 08:44:00,,0825.5,4.95,0.00,21.4,20.4,00.0,30.2,22.7,03.1,0002.3,0009.03,0004.77,0004.04
2022-12-22 08:45:00,,0825.5,5.02,0.00,21.4,21.0,00.0,30.1,22.8,03.1,0002.3,0009.03,0004.77,0004.02
2022-12-22 08:46:00,,0825.4,5.04,0.00,21.5,21.3,00.0,30.1,23.0,03.1,0001.9,0008.98,0004.71,0004.00
2022-12-22 08:47:00,,0825.5,4.96,0.00,21.6,21.5,00.0,30.1,23.1,03.0,0001.6,0008.97,0004.69,0003.99
2022-12-22 08:48:00,,0825.6,5.03,0.00,21.6,21.7,00.0,30.1,23.2,03.0,0001.5,0008.90,0004.67,0003.98
2022-12-22 08:49:00,,0825.4,4.96,0.00,21.7,21.8,00.0,30.2,23.2,03.0,0001.1,0008.81,0004.66,0003.97
2022-12-22 08:50:00,,0825.3,5.04,0.00,21.7,21.9,00.0,30.2,23.3,03.0,0000.9,0008.90,0004.68,0003.97
2022-12-22 08:51:00,,0825.3,4.97,0.00,21.8,22.0,00.0,30.2,23.4,03.0,0001.2,0008.89,0004.68,0003.98
2022-12-22 08:52:00,,0825.4,5.02,0.00,21.8,22.1,00.0,30.2,23.4,03.0,0001.0,0008.80,0004.66,0003.99
2022-12-22 08:53:00,,0825.4,4.99,0.00,21.9,22.1,00.0,30.3,23.5,03.0,0000.6,0008.88,0004.67,0003.98
2022-12-22 08:54:00,,0825.4,5.01,0.00,21.9,22.1,00.0,30.3,23.5,03.0,0000.4,0008.75,0004.64,0003.98
2022-12-22 08:55:00,,0825.4,5.02,0.00,22.0,22.1,00.0,30.3,23.6,03.0,0000.4,0008.39,0004.63,0003.99
2022-12-22 08:56:00,,0825.4,4.97,0.00,22.0,22.1,00.0,30.4,23.6,03.0,0000.5,0008.47,0004.63,0003.99
2022-12-22 08:57:00,,0825.4,5.03,0.00,22.1,22.1,00.0,30.4,23.6,03.0,0000.7,0008.46,0004.63,0004.00
2022-12-22 08:58:00,,0825.5,4.98,0.00,22.0,21.4,00.0,30.5,23.4,03.0,0000.2,0008.54,0004.66,0004.01
2022-12-22 08:59:00,,0825.6,4.99,0.00,21.8,19.6,00.0,30.5,22.7,03.0,0000.1,0008.58,0004.64,0003.99
